Погода в Чинголе

Замбия     12°31′31″S   27°52′31″E
темп.,
°C
ветер,
м/с
пор.,
м/с
влажн.,
%
обл.,
%
осадки,
мм/ч
давл.,
гПа
погр.,
м
19 апреля, пн
пн1923:00+13ююв27871 0.0 1019139
02:00+11юв289499 0.0 1018191
05:00+11юв2897100 0.0 1018229
08:00+15вюв41080100 0.0 1020449
11:00+21в455725 0.0 10171301
14:00+24вюв34487 0.0 10141737
17:00+22вюв126647 0.0 101354
20:00+17вюв258598 0.1 1017144
20 апреля, вт
вт2023:00+16юв3883100 0.1 1018338
02:00+15юв2879100 0.1 1017372
05:00+15вюв2880100 0.0 1016334
08:00+16вюв387696 0.0 1018414
11:00+22вюв3460100 0.0 10171087
14:00+23вюв345692 0.1 10141678
17:00+20вюв2576100 0.1 1014170
20:00+18вюв2681100 0.2 1016160
21 апреля, ср
ср2123:00+17юв2882100 0.0 1018454
02:00+17юв2979100 0.0 1017524
05:00+16вюв21082100 0.0 1017495
08:00+17вюв487796 0.0 1019541
11:00+23в455714 0.0 10171182
14:00+25вюв3451100 0.0 10131933
17:00+21юв2575100 0.0 1014175
20:00+19юв2972100 0.0 1016301
22 апреля, чт
чт2223:00+15юв298623 0.0 1018254
02:00+14юв29905 0.0 1017205
05:00+12вюв24910 0.0 101894
08:00+17вюв36770 0.0 1019319
11:00+23в345614 0.0 10171300
14:00+25вюв2348100 0.0 10131993
17:00+22ююв116897 0.0 101312
20:00+19юв267452 0.0 1015177
23 апреля, пт
пт2323:00+15юв299437 0.0 1017220
02:00+14вюв26976 0.0 1017164
05:00+13вюв25985 0.0 1017120
08:00+18вюв35813 0.0 1017293
11:00+24в335611 0.0 10151319
14:00+25вюв2350100 0.0 10111905
17:00+22св117096 0.0 101231
20:00+20вюв2473100 0.1 101387